TimeEST,TemperatureF,Dew PointF,Humidity,Sea Level PressureIn,VisibilityMPH,Wind Direction,Wind SpeedMPH,Gust SpeedMPH,PrecipitationIn,Events,Conditions,WindDirDegrees,DateUTC
12:54 AM,52.0,48.9,89,29.68,10.0,SSW,15.0,-,N/A,,Overcast,210,2012-12-16 05:54:00
1:54 AM,52.0,48.9,89,29.66,10.0,SSW,18.4,-,N/A,,Overcast,210,2012-12-16 06:54:00
2:54 AM,53.6,50.0,88,29.67,10.0,SSW,13.8,-,N/A,,Overcast,210,2012-12-16 07:54:00
3:33 AM,51.8,50.0,94,29.66,10.0,SSW,15.0,-,N/A,,Overcast,200,2012-12-16 08:33:00
3:54 AM,52.0,50.0,93,29.67,10.0,SSW,13.8,-,N/A,,Overcast,200,2012-12-16 08:54:00
4:24 AM,51.8,50.0,94,29.66,9.0,SSW,11.5,-,N/A,,Overcast,200,2012-12-16 09:24:00
4:54 AM,52.0,50.0,93,29.66,9.0,SSW,10.4,-,N/A,,Overcast,200,2012-12-16 09:54:00
5:54 AM,52.0,50.0,93,29.66,9.0,SSW,11.5,-,N/A,,Overcast,210,2012-12-16 10:54:00
6:13 AM,51.8,50.0,94,29.65,9.0,SSW,9.2,-,N/A,,Overcast,210,2012-12-16 11:13:00
6:35 AM,51.8,50.0,94,29.66,8.0,SSW,10.4,-,N/A,,Overcast,210,2012-12-16 11:35:00
6:47 AM,51.8,50.0,94,29.66,8.0,SSW,10.4,-,N/A,,Overcast,210,2012-12-16 11:47:00
6:54 AM,51.1,50.0,96,29.66,8.0,SSW,11.5,-,N/A,,Overcast,200,2012-12-16 11:54:00
7:54 AM,51.1,48.9,92,29.67,8.0,SW,13.8,-,N/A,,Overcast,220,2012-12-16 12:54:00
8:54 AM,51.1,48.0,89,29.68,9.0,SW,16.1,-,N/A,,Mostly Cloudy,220,2012-12-16 13:54:00
9:54 AM,51.1,48.9,92,29.69,9.0,SW,10.4,-,N/A,,Overcast,220,2012-12-16 14:54:00
10:41 AM,51.8,48.2,88,29.69,9.0,SW,10.4,-,N/A,,Overcast,230,2012-12-16 15:41:00
10:54 AM,52.0,48.0,86,29.70,9.0,SW,11.5,-,N/A,,Overcast,230,2012-12-16 15:54:00
11:39 AM,51.8,48.2,88,29.68,10.0,SW,16.1,-,N/A,,Overcast,230,2012-12-16 16:39:00
11:54 AM,52.0,48.0,86,29.68,10.0,WSW,15.0,-,N/A,,Overcast,240,2012-12-16 16:54:00
12:19 PM,51.8,48.2,88,29.66,9.0,WSW,12.7,-,N/A,,Overcast,240,2012-12-16 17:19:00
12:49 PM,53.6,48.2,82,29.66,10.0,SW,10.4,-,N/A,,Overcast,230,2012-12-16 17:49:00
12:54 PM,53.1,48.0,83,29.66,10.0,SW,15.0,-,N/A,,Overcast,230,2012-12-16 17:54:00
1:34 PM,51.8,46.4,82,29.64,10.0,WSW,16.1,-,N/A,,Overcast,250,2012-12-16 18:34:00
1:54 PM,51.1,44.1,77,29.64,10.0,WSW,19.6,28.8,N/A,,Overcast,240,2012-12-16 18:54:00
2:25 PM,51.8,44.6,76,29.63,10.0,WSW,12.7,-,N/A,,Overcast,240,2012-12-16 19:25:00
2:54 PM,51.1,44.1,77,29.62,10.0,WSW,13.8,-,N/A,,Overcast,250,2012-12-16 19:54:00
3:54 PM,50.0,43.0,77,29.65,10.0,WSW,11.5,-,N/A,,Overcast,240,2012-12-16 20:54:00
4:38 PM,48.2,42.8,82,29.66,10.0,SW,11.5,-,N/A,,Overcast,230,2012-12-16 21:38:00
4:54 PM,48.9,43.0,80,29.66,10.0,SW,10.4,-,N/A,,Overcast,230,2012-12-16 21:54:00
5:54 PM,48.0,43.0,83,29.65,10.0,WSW,9.2,-,N/A,,Overcast,250,2012-12-16 22:54:00
6:54 PM,45.0,43.0,93,29.69,9.0,West,11.5,-,N/A,,Overcast,280,2012-12-16 23:54:00
7:11 PM,44.6,42.8,93,29.68,8.0,West,11.5,-,N/A,,Overcast,280,2012-12-17 00:11:00
7:54 PM,45.0,42.1,90,29.69,9.0,West,10.4,-,N/A,,Overcast,280,2012-12-17 00:54:00
8:16 PM,44.6,41.0,87,29.69,9.0,WNW,12.7,-,N/A,,Overcast,290,2012-12-17 01:16:00
8:54 PM,43.0,39.9,89,29.70,9.0,West,15.0,-,N/A,,Overcast,280,2012-12-17 01:54:00
9:54 PM,41.0,39.0,93,29.74,9.0,West,12.7,-,N/A,,Overcast,280,2012-12-17 02:54:00
10:35 PM,41.0,39.2,93,29.74,6.0,West,9.2,-,N/A,,Overcast,280,2012-12-17 03:35:00
10:54 PM,41.0,39.0,93,29.75,6.0,West,8.1,-,0.00,,Light Drizzle,270,2012-12-17 03:54:00
11:12 PM,39.2,39.2,100,29.73,8.0,West,9.2,-,0.00,,Light Drizzle,280,2012-12-17 04:12:00
11:41 PM,41.0,37.4,87,29.73,9.0,West,9.2,-,0.00,,Light Drizzle,280,2012-12-17 04:41:00
11:54 PM,41.0,37.9,89,29.73,10.0,WNW,8.1,-,0.00,,Overcast,290,2012-12-17 04:54:00